When you browse on this site, cookies collect data to enhance your experience and personalize the content and advertising you see.
Visit our Privacy Policy to learn more. By continuing to use the site, you agree to this use of cookies and data.
  • In Norway
  • List of Countries
  • For 7 days
  • Water Temperature
  • Satellite Maps
  • Weather Map
  • Weather Widgets
  • user-avatar
    Login

    Hourly Weather Canberra

    Today, 23 February, Saturday

    Time Temperature Precipitation Wind Pressure Humidity
    00:00 +14°C° 0 mm 2 mps 713 mmHg 89%
    01:00 +14°C° 0 mm 2 mps 713 mmHg 89%
    02:00 +14°C° 0 mm 2 mps 713 mmHg 90%
    03:00 +13°C° 0 mm 2 mps 713 mmHg 91%
    04:00 +12°C° 0 mm 1 mps 713 mmHg 93%
    05:00 +13°C° 0 mm 1 mps 713 mmHg 88%
    06:00 +13°C° 0 mm 2 mps 713 mmHg 83%
    07:00 +14°C° 0 mm 2 mps 714 mmHg 77%
    08:00 +17°C° 0 mm 3 mps 714 mmHg 62%
    09:00 +20°C° 0 mm 3 mps 715 mmHg 46%
    10:00 +24°C° 0 mm 3 mps 715 mmHg 30%
    11:00 +25°C° 0 mm 4 mps 715 mmHg 28%
    12:00 +27°C° 0 mm 4 mps 715 mmHg 26%
    13:00 +28°C° 0 mm 4 mps 715 mmHg 23%
    14:00 +28°C° 0 mm 4 mps 715 mmHg 26%
    15:00 +27°C° 0 mm 5 mps 715 mmHg 29%
    16:00 +27°C° 0 mm 5 mps 715 mmHg 32%
    17:00 +23°C° 0 mm 5 mps 715 mmHg 44%
    18:00 +21°C° 0 mm 5 mps 715 mmHg 56%
    19:00 +17°C° 0 mm 5 mps 715 mmHg 68%
    20:00 +16°C° 0 mm 5 mps 715 mmHg 72%
    21:00 +15°C° 0 mm 4 mps 716 mmHg 77%
    22:00 +15°C° 0 mm 4 mps 716 mmHg 81%
    23:00 +15°C° 0 mm 4 mps 716 mmHg 80%

    Tomorrow, 24 February, Sunday

    Time Temperature Precipitation Wind Pressure Humidity
    00:00 +15°C° 0 mm 4 mps 716 mmHg 78%
    01:00 +15°C° 0 mm 4 mps 716 mmHg 77%
    02:00 +14°C° 0 mm 4 mps 717 mmHg 77%
    03:00 +14°C° 0 mm 4 mps 717 mmHg 77%
    04:00 +13°C° 0 mm 4 mps 717 mmHg 76%
    05:00 +13°C° 0 mm 4 mps 717 mmHg 76%
    06:00 +13°C° 0 mm 4 mps 717 mmHg 75%
    07:00 +13°C° 0 mm 4 mps 718 mmHg 74%
    08:00 +15°C° 0 mm 4 mps 718 mmHg 65%
    09:00 +18°C° 0 mm 4 mps 718 mmHg 55%
    10:00 +20°C° 0 mm 4 mps 719 mmHg 45%
    11:00 +22°C° 0 mm 4 mps 719 mmHg 41%
    12:00 +23°C° 0 mm 4 mps 718 mmHg 37%
    13:00 +25°C° 0 mm 4 mps 718 mmHg 33%
    14:00 +25°C° 0 mm 5 mps 718 mmHg 33%
    15:00 +25°C° 0 mm 5 mps 718 mmHg 33%
    16:00 +25°C° 0 mm 5 mps 717 mmHg 33%
    17:00 +22°C° 0 mm 4 mps 717 mmHg 42%
    18:00 +20°C° 0 mm 4 mps 717 mmHg 51%
    19:00 +17°C° 0 mm 4 mps 717 mmHg 60%
    20:00 +16°C° 0 mm 3 mps 718 mmHg 70%
    21:00 +13°C° 0 mm 3 mps 718 mmHg 80%
    22:00 +12°C° 0 mm 2 mps 718 mmHg 89%
    23:00 +12°C° 0 mm 2 mps 718 mmHg 91%

    Day after tomorrow, 25 February, Monday

    Time Temperature Precipitation Wind Pressure Humidity
    00:00 +10°C° 0 mm 2 mps 718 mmHg 93%
    01:00 +10°C° 0 mm 2 mps 718 mmHg 95%
    02:00 +10°C° 0 mm 2 mps 718 mmHg 95%
    03:00 +10°C° 0 mm 2 mps 717 mmHg 94%
    04:00 +10°C° 0 mm 2 mps 717 mmHg 94%
    05:00 +12°C° 0 mm 2 mps 717 mmHg 90%
    06:00 +12°C° 0 mm 2 mps 718 mmHg 86%
    07:00 +13°C° 0 mm 1 mps 718 mmHg 82%
    08:00 +16°C° 0 mm 2 mps 718 mmHg 69%
    09:00 +19°C° 0 mm 2 mps 719 mmHg 56%
    10:00 +23°C° 0 mm 2 mps 719 mmHg 43%
    11:00 +25°C° 0 mm 2 mps 719 mmHg 37%
    12:00 +27°C° 0 mm 2 mps 718 mmHg 31%
    13:00 +29°C° 0 mm 2 mps 718 mmHg 24%
    14:00 +30°C° 0 mm 2 mps 717 mmHg 24%
    15:00 +30°C° 0 mm 2 mps 717 mmHg 24%
    16:00 +30°C° 0 mm 2 mps 716 mmHg 23%
    17:00 +28°C° 0 mm 3 mps 716 mmHg 33%
    18:00 +25°C° 0 mm 3 mps 716 mmHg 42%
    19:00 +21°C° 0 mm 3 mps 716 mmHg 51%
    20:00 +20°C° 0 mm 2 mps 716 mmHg 62%
    21:00 +18°C° 0 mm 2 mps 716 mmHg 74%
    22:00 +16°C° 0 mm 1 mps 716 mmHg 86%
    23:00 +15°C° 0 mm 1 mps 716 mmHg 88%

    26 February, Tuesday

    Time Temperature Precipitation Wind Pressure Humidity
    00:00 +15°C° 0 mm 1 mps 715 mmHg 91%
    01:00 +14°C° 0 mm 1 mps 715 mmHg 93%
    02:00 +13°C° 0 mm 0 mps 715 mmHg 93%
    03:00 +13°C° 0 mm 0 mps 714 mmHg 92%
    04:00 +13°C° 0 mm 0 mps 714 mmHg 92%
    05:00 +13°C° 0 mm 0 mps 714 mmHg 87%
    06:00 +14°C° 0 mm 0 mps 715 mmHg 81%
    07:00 +15°C° 0 mm 0 mps 715 mmHg 76%
    08:00 +21°C° 0 mm 1 mps 715 mmHg 62%
    09:00 +25°C° 0 mm 1 mps 716 mmHg 48%
    10:00 +28°C° 0 mm 2 mps 716 mmHg 34%
    11:00 +30°C° 0 mm 2 mps 715 mmHg 29%
    12:00 +34°C° 0 mm 2 mps 715 mmHg 24%
    13:00 +35°C° 0 mm 1 mps 715 mmHg 19%
    14:00 +35°C° 0 mm 2 mps 714 mmHg 20%
    15:00 +34°C° 0 mm 2 mps 713 mmHg 21%
    16:00 +32°C° 0 mm 2 mps 713 mmHg 22%
    17:00 +30°C° 0 mm 2 mps 713 mmHg 25%
    18:00 +28°C° 0 mm 3 mps 713 mmHg 27%
    19:00 +26°C° 0 mm 3 mps 713 mmHg 30%
    20:00 +25°C° 0 mm 3 mps 713 mmHg 36%
    21:00 +23°C° 0 mm 2 mps 714 mmHg 41%
    22:00 +21°C° 0 mm 1 mps 714 mmHg 46%
    23:00 +20°C° 0 mm 2 mps 714 mmHg 47%

    27 February, Wednesday

    Time Temperature Precipitation Wind Pressure Humidity
    00:00 +19°C° 0 mm 2 mps 714 mmHg 47%
    01:00 +18°C° 0 mm 2 mps 714 mmHg 48%
    02:00 +18°C° 0 mm 2 mps 714 mmHg 47%
    03:00 +18°C° 0 mm 2 mps 714 mmHg 46%
    04:00 +19°C° 0 mm 1 mps 714 mmHg 45%
    05:00 +19°C° 0 mm 2 mps 714 mmHg 47%
    06:00 +19°C° 0 mm 2 mps 715 mmHg 50%
    07:00 +19°C° 0 mm 2 mps 715 mmHg 53%
    08:00 +22°C° 0 mm 3 mps 716 mmHg 47%
    09:00 +25°C° 0 mm 3 mps 716 mmHg 41%
    10:00 +28°C° 0 mm 3 mps 717 mmHg 36%
    11:00 +29°C° 0 mm 3 mps 717 mmHg 34%
    12:00 +30°C° 0 mm 3 mps 716 mmHg 32%
    13:00 +31°C° 0 mm 3 mps 716 mmHg 30%
    14:00 +30°C° 0 mm 4 mps 716 mmHg 35%
    15:00 +29°C° 0 mm 4 mps 716 mmHg 40%
    16:00 +28°C° 0 mm 4 mps 715 mmHg 46%
    17:00 +26°C° 0 mm 4 mps 715 mmHg 56%
    18:00 +22°C° 0 mm 4 mps 716 mmHg 66%
    19:00 +20°C° 0 mm 4 mps 716 mmHg 76%
    20:00 +19°C° 0 mm 4 mps 716 mmHg 79%
    21:00 +19°C° 0 mm 3 mps 717 mmHg 82%
    22:00 +18°C° 0 mm 3 mps 717 mmHg 86%
    23:00 +18°C° 0 mm 3 mps 717 mmHg 85%

    28 February, Thursday

    Time Temperature Precipitation Wind Pressure Humidity
    00:00 +18°C° 0 mm 3 mps 717 mmHg 85%
    01:00 +18°C° 0 mm 3 mps 717 mmHg 84%
    02:00 +18°C° 0 mm 2 mps 717 mmHg 86%
    03:00 +18°C° 0 mm 2 mps 716 mmHg 88%
    04:00 +17°C° 0 mm 2 mps 716 mmHg 89%
    05:00 +17°C° 0 mm 2 mps 717 mmHg 88%
    06:00 +19°C° 0 mm 1 mps 717 mmHg 87%
    07:00 +19°C° 0 mm 1 mps 717 mmHg 86%
    08:00 +22°C° 0 mm 1 mps 718 mmHg 73%
    09:00 +24°C° 0 mm 2 mps 718 mmHg 61%
    10:00 +27°C° 0 mm 2 mps 718 mmHg 49%
    11:00 +29°C° 0 mm 2 mps 718 mmHg 42%
    12:00 +31°C° 0 mm 2 mps 718 mmHg 35%
    13:00 +34°C° 0 mm 2 mps 717 mmHg 28%
    14:00 +32°C° 0 mm 2 mps 717 mmHg 30%
    15:00 +31°C° 0 mm 1 mps 716 mmHg 32%
    16:00 +30°C° 0 mm 1 mps 716 mmHg 33%
    17:00 +29°C° 0 mm 2 mps 716 mmHg 41%
    18:00 +27°C° 0 mm 3 mps 716 mmHg 48%
    19:00 +25°C° 0 mm 3 mps 716 mmHg 56%
    20:00 +24°C° 0 mm 3 mps 717 mmHg 64%
    21:00 +21°C° 0 mm 2 mps 717 mmHg 73%
    22:00 +20°C° 0 mm 2 mps 717 mmHg 82%
    23:00 +19°C° 0 mm 2 mps 717 mmHg 85%
    Show more